TimeCDT,TemperatureF,Dew PointF,Humidity,Sea Level PressureIn,VisibilityMPH,Wind Direction,Wind SpeedMPH,Gust SpeedMPH,PrecipitationIn,Events,Conditions,WindDirDegrees,DateUTC
12:53 AM,75.9,66.9,74,29.97,10.0,West,3.5,-,N/A,,Clear,270,2013-07-10 05:53:00
1:53 AM,75.0,66.9,76,29.99,10.0,North,11.5,-,N/A,,Clear,360,2013-07-10 06:53:00
2:53 AM,75.9,70.0,82,29.99,10.0,NW,6.9,-,N/A,,Clear,320,2013-07-10 07:53:00
3:53 AM,77.0,71.1,82,30.05,10.0,NNW,23.0,31.1,N/A,,Mostly Cloudy,330,2013-07-10 08:53:00
4:21 AM,75.2,60.8,61,30.10,10.0,North,20.7,28.8,N/A,,Mostly Cloudy,10,2013-07-10 09:21:00
4:53 AM,75.9,57.9,54,29.99,10.0,NW,12.7,16.1,0.02,Rain,Light Rain,320,2013-07-10 09:53:00
5:53 AM,73.0,64.0,73,29.96,10.0,North,13.8,-,0.01,,Clear,350,2013-07-10 10:53:00
6:10 AM,73.4,68.0,83,30.06,10.0,NNE,12.7,26.5,N/A,,Clear,30,2013-07-10 11:10:00
6:53 AM,72.0,69.1,91,29.99,9.0,ENE,9.2,-,N/A,,Clear,60,2013-07-10 11:53:00
7:53 AM,75.0,69.1,82,30.02,10.0,ENE,9.2,-,N/A,,Clear,60,2013-07-10 12:53:00
8:53 AM,78.1,66.9,68,30.04,10.0,East,13.8,-,N/A,,Clear,80,2013-07-10 13:53:00
9:53 AM,81.0,68.0,65,30.05,10.0,East,8.1,-,N/A,,Clear,100,2013-07-10 14:53:00
10:53 AM,84.0,68.0,58,30.04,10.0,East,11.5,17.3,N/A,,Partly Cloudy,100,2013-07-10 15:53:00
11:53 AM,86.0,68.0,55,30.05,10.0,ENE,13.8,21.9,N/A,,Partly Cloudy,60,2013-07-10 16:53:00
12:53 PM,90.0,66.9,46,30.04,10.0,East,13.8,18.4,N/A,,Partly Cloudy,90,2013-07-10 17:53:00
1:53 PM,91.0,66.9,45,30.03,10.0,East,9.2,-,N/A,,Partly Cloudy,100,2013-07-10 18:53:00
2:53 PM,93.0,66.0,41,30.01,10.0,ESE,11.5,-,N/A,,Clear,120,2013-07-10 19:53:00
3:53 PM,95.0,64.9,37,29.98,10.0,East,17.3,23.0,N/A,,Clear,100,2013-07-10 20:53:00
4:53 PM,93.9,63.0,36,29.98,10.0,ENE,16.1,19.6,N/A,,Scattered Clouds,70,2013-07-10 21:53:00
5:53 PM,93.9,63.0,36,29.96,10.0,East,18.4,25.3,N/A,,Scattered Clouds,100,2013-07-10 22:53:00
6:53 PM,90.0,61.0,38,29.98,10.0,ENE,16.1,28.8,N/A,,Partly Cloudy,70,2013-07-10 23:53:00
7:53 PM,89.1,60.1,38,29.92,10.0,ESE,16.1,24.2,N/A,,Partly Cloudy,120,2013-07-11 00:53:00
8:53 PM,86.0,64.0,48,29.92,10.0,SSE,13.8,-,N/A,,Partly Cloudy,150,2013-07-11 01:53:00
9:53 PM,84.0,64.0,51,29.93,10.0,South,12.7,17.3,N/A,,Partly Cloudy,180,2013-07-11 02:53:00
10:53 PM,81.0,63.0,54,29.96,10.0,SE,4.6,-,N/A,,Clear,140,2013-07-11 03:53:00
11:53 PM,79.0,64.0,60,29.97,10.0,East,8.1,-,N/A,,Clear,90,2013-07-11 04:53:00